This demonstration page uses our WeatherBlox Daily Observations layout. Learn more.

Left ArrowRight Arrow

41.55636, -103.73856

Hourly Observations for December 19, 2021

Temp ( °F °C ) Dew Point ( °F °C ) Humidity (%) Winds ( mph kmh ) Pressure ( in mb ) Visibility ( mi km ) Precip ( " mm )
12:58 am 00:58 Clear 24 -4.2 2 -16.5 38 38 W 9 15 30.08 1019 10 16 0.00 0.00
1:58 am 01:58 Clear 25 -3.7 2 -16.8 36 36 SSW 9 15 30.07 1018 10 16 0.00 0.00
2:58 am 02:58 Clear 29 -1.5 4 -15.8 33 33 WSW 13 20 30.04 1017 10 16 0.00 0.00
3:58 am 03:58 Clear 32 0 3 -16 29 29 W 10 17 30.04 1017 10 16 0.00 0.00
4:58 am 04:58 Clear 31 -0.5 4 -15.8 31 31 W 14 22 30.04 1017 10 16 0.00 0.00
5:58 am 05:58 Clear 33 0.8 1 -17.3 25 25 WSW 9 15 30.05 1018 10 16 0.00 0.00
6:58 am 06:58 Clear 34 1 0 -17.6 24 24 W 10 17 30.06 1018 10 16 0.00 0.00
7:58 am 07:58 Sunny 38 3.1 0 -17.6 20 20 W 12 19 30.05 1018 10 16 0.00 0.00
8:58 am 08:58 Sunny 41 5.2 4 -15.8 20 20 W 13 20 30.04 1017 10 16 0.00 0.00
9:58 am 09:58 Sunny 50 9.9 1 -17.1 13 13 WSW 20 31 30.01 1016 10 16 0.00 0.00
10:58 am 10:58 Sunny 54 12.3 -4 -19.8 9 9 W 24 39 29.98 1015 10 16 0.00 0.00
11:58 am 11:58 Sunny 55 12.5 -8 -22.3 7 7 W 30 48 29.95 1014 10 16 0.00 0.00
12:58 pm 12:58 Sunny 54 12.1 -8 -22.2 7 7 W 25 41 29.94 1014 10 16 0.00 0.00
1:58 pm 13:58 Sunny 54 12.4 -5 -20.4 8 8 W 25 41 29.94 1014 10 16 0.00 0.00
2:58 pm 14:58 Mostly Cloudy 52 11 -5 -20.4 9 9 W 16 26 29.94 1014 10 16 0.00 0.00
3:58 pm 15:58 Mostly Cloudy 49 9.7 -3 -19.7 11 11 WNW 12 19 29.94 1014 10 16 0.00 0.00
4:58 pm 16:58 Partly Cloudy 47 8.2 -2 -18.8 13 13 W 6 9 29.97 1015 10 16 0.00 0.00
5:58 pm 17:58 Clear 43 6 0 -17.8 16 16 WSW 8 13 29.98 1015 10 16 0.00 0.00
6:58 pm 18:58 Clear 42 5.6 1 -17.3 18 18 W 14 22 29.98 1015 10 16 0.00 0.00
7:58 pm 19:58 Clear 45 7.2 2 -16.8 16 16 W 13 20 29.97 1015 10 16 0.00 0.00
8:58 pm 20:58 Mostly Clear 46 7.7 1 -17.4 15 15 W 17 28 29.95 1014 10 16 0.00 0.00
9:58 pm 21:58 Clear 38 3.5 1 -17.2 20 20 WSW 16 26 29.96 1015 10 16 0.00 0.00
10:58 pm 22:58 Mostly Clear 41 5.1 2 -16.7 19 19 W 16 26 29.94 1014 10 16 0.00 0.00
11:58 pm 23:58 Mostly Clear 33 0.6 2 -16.8 26 26 SW 7 11 29.97 1015 10 16 0.00 0.00

Powered by AerisWeather